Miscellaneous Local Product
Issued by NWS Hastings, NE

Home | Current Version | Previous Version | Graphics & Text | Print | Product List | Glossary On
Versions: 1 2 3 4 5 6 7 8 9 10 11 12 13 14 15 16 17 18 19 20 21 22 23 24 25 26 27 28 29 30 31 32 33 34 35 36 37 38 39 40 41 42 43 44 45 46 47 48 49 50
000
AXUS43 KGID 200402
MISGRI

GID CWA HOURLY WEATHER ROUNDUP
NATIONAL WEATHER SERVICE HASTINGS NE
1000 PM CST SUN FEB 19 2017

NOTE: "FAIR" INDICATES FEW OR NO CLOUDS BELOW 12,000 FEET WITH NO
SIGNIFICANT WEATHER AND/OR OBSTRUCTIONS TO VISIBILITY.

...SOUTH CENTRAL NEBRASKA...

CITY           SKY/WX    TMP DP  RH WIND       PRES   REMARKS
GRAND ISLAND   CLOUDY    54  52  93 S16G24    29.76S
HASTINGS       PTCLDY    55  51  86 S16G23    29.78R
KEARNEY        CLOUDY    55  48  76 S20       29.76R
ORD            CLOUDY    55  48  77 S17G24    29.71R
YORK           CLOUDY    54  50  87 S10       29.79F
AURORA         CLOUDY    54  51  89 S17G23    29.77F
LEXINGTON      PTCLDY    56  51  81 S22G28    29.70F
HOLDREGE       PTCLDY    54  50  86 S17G24    29.74S
HEBRON         MOCLDY    57  52  83 S13       29.81S

...NEBRASKA PANHANDLE...

CITY           SKY/WX    TMP DP  RH WIND       PRES   REMARKS
CHADRON        CLOUDY    49  36  61 W5        29.59R
ALLIANCE       CLOUDY    51  36  56 SW18G25   29.60R
SCOTTSBLUFF    CLOUDY    50  35  56 NW10      29.63R
SIDNEY         CLOUDY    52  27  38 S12       29.62R

...WESTERN AND NORTH CENTRAL NEBRASKA...

CITY           SKY/WX    TMP DP  RH WIND       PRES   REMARKS
VALENTINE      PTCLDY    60  44  55 S17G28    29.59F
AINSWORTH      CLOUDY    58  47  67 S17G23    29.62S
ONEILL         CLOUDY    56  49  78 S13G23    29.69S
BROKEN BOW     CLOUDY    56  49  77 S22G31    29.69R
IMPERIAL       PTCLDY    58  30  34 S14       29.63R
NORTH PLATTE   CLOUDY    60  48  64 SE16G29   29.61F
MCCOOK         MOCLDY    58  51  78 S17       29.66F

...EASTERN NEBRASKA...

CITY           SKY/WX    TMP DP  RH WIND       PRES   REMARKS
NORFOLK        CLOUDY    56  49  77 S20G28    29.75R
SO SIOUX CITY  CLOUDY    61  53  75 S21G28    29.79R
TEKAMAH        PTCLDY    57  51  80 S16       29.82R
COLUMBUS       CLOUDY    55  48  76 S15G23    29.79R
ALBION         CLOUDY    55  49  80 S13       29.75R
OMAHA EPPLEY   PTCLDY    59  52  77 S15       29.84R
OFFUTT AFB     CLOUDY    58  58 100 S14       29.85R
MILLARD        PTCLDY    60  55  83 S9        29.85R
LINCOLN        CLOUDY    55  52  89 S13       29.82R
NEBRASKA CITY  PTCLDY    57  51  79 SW15      29.87R
BEATRICE       MOCLDY    58  54  86 S10       29.83F
FALLS CITY     MOCLDY    58  53  84 S8        29.87R

...NORTHERN KANSAS...

CITY           SKY/WX    TMP DP  RH WIND       PRES   REMARKS
GOODLAND       MOCLDY    55  31  39 S20       29.67R
HILL CITY      PTCLDY    56  54  93 S13G18    29.74S
NORTON         CLEAR     55  48  76 SE10G16   29.73S
PHILLIPSBURG   CLEAR     57  54  88 SE10      29.76F
SMITH CENTER   CLEAR     52  50  93 SE13      29.78S FOG
HAYS           PTCLDY    57  54  89 S18       29.77S
RUSSELL        CLOUDY    58  55  90 S18       29.77S
CONCORDIA      PTCLDY    57  54  89 S13       29.82R
SALINA         CLOUDY    56  52  86 CALM      29.81S
TOPEKA         PTCLDY    57  52  83 E3        29.87F



USA.gov is the U.S. government's official web portal to all federal, state and local government web resources and services.